sat.trackr.live / text

‹ back to catalog

STARLINK-30121

NORAD 56695 · 2023-067H

PAYLOAD ACTIVE UNKNOWN

§ Identity

Operator
Country
US
Launch date
2023-05-19
Launch site
AFETR
Launch vehicle
Mass (kg)
RCS (m²)

Purposes: comms

External: N2YO · Heavens-Above · Gunter

§ Orbital elements

Epoch: 2026-05-25T05:18:53.604000Z

Period
94.27 min
Inclination
43.0016°
Eccentricity
0.0001092
Mean motion
15.27576402 rev/d
Perigee alt
482.3 km
Apogee alt
483.8 km
Semi-major
6,861.2 km
B*
-2.7282e-6
RAAN
209.1325°
Arg perigee
278.1660°
Mean anomaly
81.9068°
Rev number
16,728

§ Raw data

STARLINK-301211 56695U 23067H   26145.22145375 -.00000337  00000+0 -27282-5 0  99962 56695  43.0016 209.1325 0001092 278.1660  81.9068 15.27576402167286

JSON: /api/v1/satellites/56695 · /tle

For live sub-satellite position, see the globe view (requires WebGL).

§ Visibility from observer

Set your observer location to see the next 7 days of passes ≥ 10°. The values pass through the URL so the page stays shareable.

No JS? Fill the form by hand. The geolocation button needs JavaScript.